Погода в Зачатье

Россия / Ярославская область     57°06′58″N   38°45′28″E
темп.,
°C
ветер,
м/с
пор.,
м/с
влажн.,
%
обл.,
%
осадки,
мм/ч
давл.,
гПа
погр.,
м
14 мая, пт
пт1400:00+11ю31185100 0.0 1017432
03:00+8ю2798100 0.0 1018160
06:00+10ю26905 0.0 1018176
09:00+16ююв3665100 0.0 1018853
12:00+18ююв4760100 0.1 10171471
15:00+21ююв36476 0.1 10161865
18:00+15ююв41089100 1.8 1015333
21:00+13в379762 5.7 1014178
15 мая, сб
сб1500:00+13в4999100 9.6 1013301
03:00+13вюв3999100 10.6 1012264
06:00+14юв31197100 0.1 1011310
09:00+18ююв3982100 0.1 1010469
12:00+21ю388114 2.6 1009815
15:00+18ююв51190100 8.1 1008604
18:00+18ююз498899 2.9 1008560
21:00+14ю39945 5.4 1008177
16 мая, вс
вс1600:00+12ю311960 0.2 1009259
03:00+12ююз311978 0.2 1009326
06:00+13ююз4119651 0.0 1010493
09:00+16ююз597831 0.0 1011924
12:00+18юз597399 0.8 10111373
15:00+18юз598193 3.1 10111109
18:00+16юз4108395 1.1 1011701
21:00+13ююз299588 1.2 1012205
17 мая, пн
пн1700:00+12ююз310970 0.0 1013235
03:00+11юз28974 0.0 1014166
06:00+13ююз259487 0.0 1015168
09:00+18ююз247229 0.0 1015510
12:00+22ю2454100 0.0 10151334
15:00+23юв334847 0.0 10141467
18:00+21вюв367091 0.0 1013467
21:00+16в3109461 0.5 1013195
18 мая, вт
вт1800:00+15в3109778 0.1 1012183
03:00+14вюв379697 0.1 1011132
06:00+15вюв3119096 0.0 1010266
09:00+21юв5116569 0.0 1009493
12:00+24ююв595061 0.0 1009958
15:00+26юв511475 0.0 10081803
18:00+24юв5115595 0.0 1007807
21:00+19ююв4127194 0.0 1008409